North Vernon, Indiana, United States (47265)
Lat: 39.01N, Lon: 85.62W
Wx Zone: INZ072
Local Info
Past Weather Observations for Sunday, October 19, 2014

NOTE: This archive is for the closest National Weather Service station to North Vernon. Information may differ from the station used for current weather conditions.

Click here for Long-term Archive

Time Weather Temperature Dewpoint Humidity Pressure Winds Precip Visibility
23:53
Clear
46°F / 8°C 41°F / 5°C 82% 30.04 in
(1017 mb)
SSE 5.8 mph
(SSE 9 kph)
- 10SM
22:53
Clear
46°F / 8°C 39°F / 4°C 76% 30.06 in
(1018 mb)
SW 4.6 mph
(SW 7 kph)
- 9SM
21:53
Clear
46°F / 8°C 39°F / 4°C 76% 30.06 in
(1018 mb)
S 6.9 mph
(S 11 kph)
- 10SM
20:53
Clear
46°F / 8°C 39°F / 4°C 76% 30.06 in
(1018 mb)
S 8.1 mph
(S 13 kph)
- 10SM
19:53
Clear
48°F / 9°C 39°F / 4°C 71% 30.09 in
(1019 mb)
S 6.9 mph
(S 11 kph)
- 10SM
18:53
Clear
50°F / 10°C 39°F / 4°C 67% 30.09 in
(1019 mb)
S 8.1 mph
(S 13 kph)
- 10SM
17:53
Clear
54°F / 12°C 39°F / 4°C 58% 30.09 in
(1019 mb)
S 5.8 mph
(S 9 kph)
- 10SM
16:53
Clear
57°F / 14°C 39°F / 4°C 51% 30.12 in
(1020 mb)
SW 9.2 mph
(SW 15 kph)
- 10SM
15:53
Clear
55°F / 13°C 37°F / 3°C 51% 30.12 in
(1020 mb)
SW 5.8 mph
(SW 9 kph)
- 10SM
14:53
Clear
57°F / 14°C 39°F / 4°C 51% 30.15 in
(1021 mb)
Variable 3.5 mph
(Variable 6 kph)
- 10SM
13:53
Clear
55°F / 13°C 39°F / 4°C 55% 30.18 in
(1022 mb)
Calm - 10SM
12:53
Clear
55°F / 13°C 37°F / 3°C 51% 30.21 in
(1023 mb)
SW 6.9 mph
(SW 11 kph)
- 10SM
11:53
Clear
54°F / 12°C 37°F / 3°C 54% 30.24 in
(1024 mb)
W 8.1 mph
(W 13 kph)
- 10SM
10:53
Partly Cloudy
52°F / 11°C 37°F / 3°C 58% 30.24 in
(1024 mb)
NW 5.8 mph
(NW 9 kph)
- 10SM
09:53
Clear
50°F / 10°C 36°F / 2°C 58% 30.24 in
(1024 mb)
Variable 4.6 mph
(Variable 7 kph)
- 10SM
08:53
Clear
46°F / 8°C 36°F / 2°C 66% 30.24 in
(1024 mb)
SW 4.6 mph
(SW 7 kph)
- 10SM
06:53
Overcast
46°F / 8°C 36°F / 2°C 66% 30.21 in
(1023 mb)
Calm - 10SM
05:53
Overcast
46°F / 8°C 37°F / 3°C 71% 30.21 in
(1023 mb)
N 5.8 mph
(N 9 kph)
- 10SM
04:53
Overcast
46°F / 8°C 37°F / 3°C 71% 30.18 in
(1022 mb)
N 4.6 mph
(N 7 kph)
- 10SM
03:53
Overcast
46°F / 8°C 39°F / 4°C 76% 30.18 in
(1022 mb)
N 5.8 mph
(N 9 kph)
- 10SM
02:53
Overcast
46°F / 8°C 39°F / 4°C 76% 30.18 in
(1022 mb)
NNW 9.2 mph
(NNW 15 kph)
- 10SM
01:53
Overcast
48°F / 9°C 39°F / 4°C 71% 30.18 in
(1022 mb)
N 8.1 mph
(N 13 kph)
- 10SM
00:53
Overcast
48°F / 9°C 41°F / 5°C 76% 30.18 in
(1022 mb)
NNW 9.2 mph
(NNW 15 kph)
- 10SM
Time Weather Temperature Dewpoint Humidity Pressure Winds Precip Visibility


Weather for websites

WeatherForYou.com, LLC is not responsible for any damages or problems caused by this service. Current weather conditions are obtained from the closest station including government and personal stations which may have varying degrees of accuracy. Weather forecasts are derived from the NOAA NDFD. Like all things, this site belongs to Jesus Christ... He just trusts me to maintain it. If you have any questions or comments email webmaster@weatherforyou.com

Copyright © 2014, WeatherForYou.com LLC. All rights reserved.